| time (UTC) | temp F | wind direction | speed MPH | gust MPH | rain 1hr in | rain 24hr in | rain mn in | humidity % | barometer mb |
| 20260506174531 | 51 | 144 | 5.0 | 15.0 | 0.03 | 0.09 | 0.09 | 91 | 1007.8 |
| 20260506173028 | 51 | 206 | 6.0 | 13.0 | 0.03 | 0.08 | 0.08 | 91 | 1007.6 |
| 20260506171543 | 51 | 161 | 3.0 | 11.0 | 0.03 | 0.07 | 0.07 | 91 | 1007.4 |
| 20260506170024 | 51 | 191 | 4.0 | 10.0 | 0.03 | 0.06 | 0.06 | 90 | 1007.3 |
| 20260506164523 | 52 | 250 | 5.0 | 12.0 | 0.04 | 0.06 | 0.06 | 90 | 1007.3 |
| 20260506163025 | 52 | 203 | 3.0 | 17.0 | 0.04 | 0.05 | 0.05 | 89 | 1007.3 |
| 20260506161534 | 52 | 236 | 3.0 | 12.0 | 0.04 | 0.04 | 0.04 | 88 | 1007.3 |
| 20260506160018 | 52 | 171 | 3.0 | 13.0 | 0.03 | 0.03 | 0.03 | 87 | 1007.2 |
| 20260506154515 | 52 | 130 | 4.0 | 16.0 | 0.02 | 0.02 | 0.02 | 85 | 1007.2 |
| 20260506153013 | 53 | 150 | 1.0 | 12.0 | 0.01 | 0.01 | 0.01 | 82 | 1007.1 |
| 20260506151512 | 53 | 209 | 4.0 | 12.0 | 0.00 | 0.00 | 0.00 | 81 | 1007.0 |
| 20260506150011 | 54 | 242 | 5.0 | 12.0 | 0.00 | 0.00 | 0.00 | 81 | 1006.9 |
| 20260506144511 | 54 | 182 | 6.0 | 11.0 | 0.00 | 0.03 | 0.00 | 81 | 1006.8 |
| 20260506143009 | 54 | 161 | 5.0 | 10.0 | 0.00 | 0.03 | 0.00 | 83 | 1006.8 |
| 20260506141506 | 54 | 225 | 3.0 | 12.0 | 0.00 | 0.03 | 0.00 | 83 | 1006.8 |
| 20260506140005 | 54 | 207 | 6.0 | 14.0 | 0.00 | 0.03 | 0.00 | 83 | 1006.7 |
| 20260506134505 | 54 | 187 | 5.0 | 18.0 | 0.00 | 0.03 | 0.00 | 83 | 1006.6 |
| 20260506133002 | 54 | 114 | 9.0 | 19.0 | 0.00 | 0.03 | 0.00 | 82 | 1006.6 |
| 20260506131503 | 55 | 244 | 9.0 | 22.0 | 0.00 | 0.03 | 0.00 | 82 | 1006.5 |
| 20260506130059 | 56 | 174 | 5.0 | 20.0 | 0.00 | 0.03 | 0.00 | 81 | 1006.3 |
| 20260506124605 | 57 | 172 | 8.0 | 18.0 | 0.00 | 0.03 | 0.00 | 80 | 1006.1 |
| 20260506123057 | 57 | 121 | 8.0 | 18.0 | 0.00 | 0.03 | 0.00 | 81 | 1005.8 |
| 20260506121605 | 58 | 244 | 7.0 | 14.0 | 0.00 | 0.03 | 0.00 | 81 | 1005.7 |
| 20260506120055 | 58 | 198 | 6.0 | 15.0 | 0.00 | 0.03 | 0.00 | 79 | 1005.6 |
| 20260506114555 | 58 | 217 | 7.0 | 17.0 | 0.00 | 0.03 | 0.00 | 78 | 1005.5 |
| 20260506113053 | 59 | 197 | 7.0 | 15.0 | 0.00 | 0.03 | 0.00 | 77 | 1005.5 |
| 20260506111610 | 59 | 157 | 4.0 | 16.0 | 0.00 | 0.03 | 0.00 | 74 | 1005.4 |
| 20260506110054 | 59 | 185 | 6.0 | 11.0 | 0.00 | 0.03 | 0.00 | 72 | 1005.5 |
| 20260506104551 | 59 | 174 | 6.0 | 11.0 | 0.00 | 0.03 | 0.00 | 73 | 1005.3 |
| 20260506103051 | 59 | 207 | 5.0 | 10.0 | 0.00 | 0.03 | 0.00 | 73 | 1005.4 |
| 20260506101550 | 59 | 231 | 2.0 | 11.0 | 0.00 | 0.03 | 0.00 | 73 | 1005.2 |
| 20260506100049 | 59 | 199 | 5.0 | 11.0 | 0.00 | 0.03 | 0.00 | 71 | 1005.1 |
| 20260506094551 | 59 | 200 | 3.0 | 9.0 | 0.00 | 0.03 | 0.00 | 72 | 1005.1 |
| 20260506093053 | 60 | 226 | 5.0 | 12.0 | 0.00 | 0.03 | 0.00 | 71 | 1005.1 |
| 20260506091547 | 60 | 190 | 2.0 | 8.0 | 0.00 | 0.03 | 0.00 | 70 | 1005.0 |
| 20260506090046 | 60 | 204 | 2.0 | 10.0 | 0.00 | 0.03 | 0.00 | 70 | 1004.9 |
| 20260506084543 | 60 | 214 | 2.0 | 12.0 | 0.00 | 0.03 | 0.00 | 71 | 1004.9 |
| 20260506083051 | 59 | 216 | 2.0 | 10.0 | 0.00 | 0.03 | 0.00 | 72 | 1004.7 |
| 20260506081546 | 59 | 236 | 2.0 | 10.0 | 0.00 | 0.03 | 0.00 | 72 | 1004.7 |
| 20260506073034 | 58 | 192 | 6.0 | 11.0 | 0.00 | 0.03 | 0.00 | 75 | 1004.9 |
| 20260506071530 | 57 | 225 | 3.0 | 7.0 | 0.00 | 0.03 | 0.00 | 76 | 1004.8 |
| 20260506070127 | 57 | 209 | 3.0 | 11.0 | 0.00 | 0.03 | 0.00 | 76 | 1004.8 |
| 20260506061532 | 55 | 51 | 0.0 | 0.0 | 0.00 | 0.03 | 0.00 | 83 | 1004.9 |
| 20260506044507 | 54 | 195 | 1.0 | 5.0 | 0.00 | 0.03 | 0.00 | 82 | 1005.1 |
| 20260506043008 | 54 | 200 | 2.0 | 6.0 | 0.00 | 0.03 | 0.00 | 81 | 1005.2 |
| 20260506041505 | 54 | 217 | 2.0 | 5.0 | 0.00 | 0.03 | 0.00 | 80 | 1005.2 |
| 20260506040002 | 55 | 224 | 0.0 | 8.0 | 0.00 | 0.03 | 0.00 | 79 | 1005.3 |
| 20260506034604 | 55 | 191 | 4.0 | 11.0 | 0.00 | 0.03 | 0.00 | 79 | 1005.4 |
| 20260506033100 | 54 | 184 | 2.0 | 7.0 | 0.00 | 0.03 | 0.00 | 78 | 1005.4 |
| 20260506031601 | 55 | 199 | 0.0 | 2.0 | 0.00 | 0.03 | 0.00 | 77 | 1005.4 |
| 20260506030059 | 55 | 200 | 0.0 | 4.0 | 0.00 | 0.03 | 0.00 | 77 | 1005.6 |
| 20260506024601 | 55 | 186 | 2.0 | 5.0 | 0.00 | 0.03 | 0.00 | 77 | 1005.8 |
| 20260506023054 | 55 | 200 | 0.0 | 4.0 | 0.00 | 0.03 | 0.00 | 77 | 1005.8 |
| 20260506021552 | 55 | 196 | 1.0 | 4.0 | 0.00 | 0.03 | 0.00 | 79 | 1005.9 |
| 20260506020106 | 53 | 171 | 1.0 | 6.0 | 0.00 | 0.03 | 0.00 | 81 | 1006.1 |
| 20260506014607 | 53 | 80 | 0.0 | 2.0 | 0.00 | 0.03 | 0.00 | 84 | 1006.2 |
| 20260506013050 | 52 | 80 | 0.0 | 0.0 | 0.00 | 0.03 | 0.00 | 85 | 1006.5 |
| 20260506011611 | 53 | 80 | 0.0 | 3.0 | 0.00 | 0.03 | 0.00 | 85 | 1006.6 |
| 20260506010048 | 53 | 80 | 0.0 | 4.0 | 0.00 | 0.03 | 0.00 | 84 | 1006.4 |
| 20260506004559 | 53 | 79 | 0.0 | 1.0 | 0.00 | 0.03 | 0.00 | 84 | 1006.4 |
| 20260506003042 | 53 | 67 | 0.0 | 3.0 | 0.00 | 0.03 | 0.00 | 83 | 1006.5 |
| 20260506001544 | 54 | 72 | 0.0 | 0.0 | 0.00 | 0.03 | 0.00 | 82 | 1006.6 |
| 20260505234543 | 55 | 90 | 0.0 | 2.0 | 0.00 | 0.03 | 0.00 | 81 | 1006.8 |
| 20260505233033 | 55 | 61 | 0.0 | 3.0 | 0.00 | 0.03 | 0.00 | 79 | 1006.9 |
| 20260505231530 | 56 | 85 | 0.0 | 2.0 | 0.00 | 0.03 | 0.00 | 78 | 1007.1 |
| 20260505230049 | 56 | 85 | 1.0 | 3.0 | 0.00 | 0.03 | 0.00 | 76 | 1007.1 |
| 20260505224536 | 56 | 227 | 0.0 | 5.0 | 0.00 | 0.03 | 0.00 | 76 | 1007.2 |
| 20260505223026 | 56 | 179 | 0.0 | 5.0 | 0.00 | 0.03 | 0.00 | 77 | 1007.2 |
| 20260505221522 | 56 | 218 | 0.0 | 0.0 | 0.00 | 0.03 | 0.00 | 78 | 1007.3 |
| 20260505220019 | 57 | 218 | 0.0 | 3.0 | 0.00 | 0.03 | 0.00 | 77 | 1007.3 |
| 20260505214522 | 57 | 213 | 0.0 | 4.0 | 0.00 | 0.03 | 0.03 | 77 | 1007.2 |
| 20260505213019 | 57 | 204 | 1.0 | 7.0 | 0.00 | 0.03 | 0.03 | 77 | 1007.2 |
| 20260505211526 | 57 | 172 | 1.0 | 6.0 | 0.00 | 0.03 | 0.03 | 79 | 1007.2 |
| 20260505210017 | 57 | 143 | 2.0 | 8.0 | 0.00 | 0.03 | 0.03 | 80 | 1007.2 |
| 20260505204515 | 57 | 175 | 2.0 | 9.0 | 0.00 | 0.03 | 0.03 | 80 | 1007.3 |
| 20260505203015 | 58 | 172 | 2.0 | 7.0 | 0.00 | 0.03 | 0.03 | 80 | 1007.2 |
| 20260505201514 | 58 | 120 | 2.0 | 9.0 | 0.00 | 0.03 | 0.03 | 81 | 1007.1 |
| 20260505200014 | 58 | 220 | 1.0 | 6.0 | 0.00 | 0.03 | 0.03 | 81 | 1007.0 |
| 20260505194515 | 58 | 151 | 3.0 | 7.0 | 0.00 | 0.03 | 0.03 | 80 | 1006.9 |
| 20260505193015 | 58 | 182 | 4.0 | 10.0 | 0.00 | 0.03 | 0.03 | 79 | 1006.8 |
| 20260505191512 | 59 | 212 | 2.0 | 9.0 | 0.00 | 0.03 | 0.03 | 78 | 1006.7 |
| 20260505190014 | 59 | 146 | 2.0 | 8.0 | 0.00 | 0.03 | 0.03 | 79 | 1006.6 |
| 20260505184517 | 59 | 227 | 2.0 | 9.0 | 0.00 | 0.03 | 0.03 | 79 | 1006.4 |
| 20260505183011 | 60 | 192 | 1.0 | 9.0 | 0.00 | 0.03 | 0.03 | 78 | 1006.3 |
| 20260505181510 | 61 | 239 | 2.0 | 12.0 | 0.00 | 0.03 | 0.03 | 77 | 1006.4 |
| 20260505180011 | 62 | 208 | 3.0 | 7.0 | 0.00 | 0.03 | 0.03 | 73 | 1006.2 |